Location: Eymir
(36.7333°N, 29.7833°E)
Time: 00:20:28
(UTC+00:00)

VELOX 1 - Pass Details

Date: 24 May 2026
Orbit: 569 x 578 km, 98.3° (Epoch: 10 June)

Event Time Altitude Azimuth Distance (km) Brightness Sun altitude
Rises 21:34:00 0° 9° (N) 2,796 ? -32.1°
Reaches altitude 10° 21:36:09 10° 7° (N) 1,894 ? -32.1°
Enters shadow 21:37:55 25° 1° (N) 1,193 ? -32.2°
